EW7670 Weather Reports


Display with metric or nautical units.
time (UTC)temp
F
wind
direction
speed
MPH
gust
MPH
rain 1hr
in
rain 24hr
in
rain mn
in
humidity
%
barometer
mb
20260903123034 84 260 11.0 13.0 0.00 0.00 0.00 86 1016.4
20260903121521 84 290 7.0 14.0 0.00 0.00 0.00 86 1016.4
20260903113200 83 248 10.0 15.0 0.00 0.00 0.00 88 1016.0
20260903083018 82 308 5.0 10.0 0.00 0.00 0.00 89 1015.1
20260903074657 82 269 5.0 11.0 0.00 0.00 0.00 87 1014.8
20260903073134 83 280 4.0 10.0 0.00 0.00 0.00 88 1014.7
20260903060058 83 266 10.0 15.0 0.00 0.00 0.00 85 1015.1
20260903054503 84 266 13.0 19.0 0.00 0.00 0.00 85 1015.1
20260903053020 84 245 15.0 19.0 0.00 0.00 0.00 84 1015.1
20260903051517 84 250 10.0 16.0 0.00 0.00 0.00 84 1015.0
20260903050014 84 240 12.0 15.0 0.00 0.00 0.00 84 1015.0
20260903044522 84 244 10.0 15.0 0.00 0.00 0.00 85 1015.0
20260903043034 84 248 11.0 15.0 0.00 0.00 0.00 84 1015.0
20260903041543 84 251 9.0 14.0 0.00 0.00 0.00 84 1014.8
20260903040046 84 240 9.0 16.0 0.00 0.00 0.00 84 1014.9
20260903033027 84 242 12.0 18.0 0.00 0.00 0.00 82 1015.2
20260903014605 84 258 14.0 21.0 0.00 0.00 0.00 83 1015.2
20260903004511 84 219 8.0 15.0 0.00 0.00 0.00 84 1014.8
20260903000155 84 216 7.0 12.0 0.00 0.00 0.00 84 1015.0
20260902224656 85 225 7.0 10.0 0.00 0.00 0.00 83 1015.3
20260902223044 85 216 6.0 10.0 0.00 0.00 0.00 84 1015.3
20260902213013 85 230 7.0 11.0 0.00 0.00 0.00 86 1015.5
20260902204656 87 161 8.0 12.0 0.00 0.00 0.00 82 1014.7
20260902193025 87 219 8.0 12.0 0.00 0.00 0.00 77 1015.3
20260902173121 86 221 9.0 15.0 0.00 0.00 0.00 80 1015.5
20260902161534 86 228 7.0 12.0 0.00 0.00 0.00 79 1016.0
20260902160004 86 208 4.0 8.0 0.00 0.00 0.00 78 1016.0
20260902151646 86 232 9.0 13.0 0.00 0.00 0.00 77 1016.1
20260902134540 84 251 15.0 21.0 0.00 0.00 0.00 78 1015.5